Regional Weather Roundup
Issued by NWS

Home | Current Version | Previous Version | Text Only | Print | Product List | Glossary On
Versions: 1 2 3 4 5 6 7 8 9 10 11 12 13 14 15 16 17 18 19 20 21 22 23 24 25 26 27 28 29 30 31 32 33 34 35 36 37 38 39 40 41 42 43 44 45 46 47 48 49 50
000
ASHW40 PHFO 032343
RWRHI

WEATHER ROUNDUP FOR HAWAII
NATIONAL WEATHER SERVICE HONOLULU HI
100 PM HST THU SEP 03 2015

THIS IS AN AUTOMATED REPORT THAT HAS NOT BEEN QUALITY CONTROLLED.

NOTE..."FAIR" INDICATES FEW OR NO CLOUDS BELOW 12,000 FEET WITH NO
SIGNIFICANT WEATHER AND/OR OBSTRUCTIONS TO VISIBILITY.

* - THESE SITES REPORT LIMITED FIELDS

HIZ001>004-040000-
KAUAI-NIIHAU-

CITY           SKY/WX    TMP DP  RH WIND       PRES   REMARKS
LIHUE APT      CLOUDY    82  77  83 SE13      29.88F HX  91
PORT ALLEN*    NOT AVBL
POIPU*           N/A     86 N/A N/A E2          N/A
PRINCEVILLE*     N/A     86 N/A N/A MISG        N/A
KOKOLE POINT*  NOT AVBL
MOLOAA DAIRY*    N/A     84  75  74 SE12G21     N/A  HX  92
WAIMEA HTS*      N/A     82  73  74 S8G17       N/A
PUU OPAE*        N/A     75  70  83 SE10        N/A
PUU LUA*       NOT AVBL
MAKAHA RIDGE*    N/A     81  72  74 SW2         N/A
$$

HIZ005>011-040000-
OAHU-

CITY           SKY/WX    TMP DP  RH WIND       PRES   REMARKS
HONOLULU       TSTM      79  73  83 E10       29.87S VSB 1/4
KALAELOA       PTSUNNY   82  75  78 CALM      29.89S
KANEOHE MCB    CLOUDY    80  76  87 E5        29.85F
WHEELER FIELD  PTSUNNY   81  75  83 S6        29.88F
BELLOWS*         N/A    N/A N/A N/A E10G16      N/A
KAHUKU*          N/A    N/A N/A N/A E8G16       N/A
WHEELER*       NOT AVBL
WAIANAE HARBOR NOT AVBL
DILLINGHAM*      N/A     95  88  79 MISG        N/A  HX 133
KAHUKU TRN*      N/A     75  70  83 E6G12       N/A
KAWAILOA*        N/A     79  75  89 N2          N/A
KII*             N/A     81  77  89 E12G17      N/A
MAKUA RANGE*     N/A     82  75  78 NW3G9       N/A
OAHU FOREST NW   N/A     72  72 100 CALM        N/A
SCHOFIELD BRK*   N/A     77  73  88 MISG        N/A
SCHOFIELD S*   NOT AVBL
WAIANAE VLY*     N/A     90  81  74 MISG        N/A  HX 108
KUAOKALA*        N/A     79  73  83 NW7         N/A
HONOULIUULI*   NOT AVBL
MOKUOLOE IS*     N/A    N/A N/A N/A MISG        N/A
PALEHUA*         N/A     73  72  94 E5G13       N/A
WAIAWA PHB*    NOT AVBL
$$

HIZ012>013-040000-
MOLOKAI-

CITY           SKY/WX    TMP DP  RH WIND       PRES   REMARKS
MOLOKAI AIRPT  CLOUDY    82  74  76 SE14      29.91F
KALAUPAPA      NOT AVBL
MAKAPULAPAI*     N/A     79  75  89 E3G16       N/A
MOLOKAI 1*       N/A     82  81  94 CALM        N/A  HX  95
PUU ALII*        N/A     66  66 100 CALM        N/A
$$

HIZ016-040000-
KAHOOLAWE-

CITY           SKY/WX    TMP DP  RH WIND       PRES   REMARKS
KAHOOLAWE*       N/A     75 N/A N/A E14G21      N/A
HAKIOAWA*        N/A     79  75  88 MISG      30.32F
HONOKANAIA*      N/A     83  75  76 E12G23    29.84S HX  90
KANELOA*         N/A     81  75  83 E15G23    29.98F
KEALIALALO*      N/A     79  73  83 E10G22    29.89F
LUA MAKIKA*    NOT AVBL
$$

HIZ014>015-040000-
LANAI-

CITY           SKY/WX    TMP DP  RH WIND       PRES   REMARKS
LANAI CITY     LGT RAIN  75  73  93 W3        29.97F
LANAI 1*         N/A     73  72  94 E5          N/A
$$

HIZ017>028-040000-
MAUI-

CITY           SKY/WX    TMP DP  RH WIND       PRES   REMARKS
KAHULUI        CLOUDY    86  73  66 CALM      29.88F HX  93
KAPALUA-W MAUI PTSUNNY   84  73  70 E9        29.89  HX  91
HANA AIRPORT   MOSUNNY   84  75  74 E9        29.91F HX  92
HANA*            N/A     84 N/A N/A E8          N/A
HALEAKALA SUMM   N/A     54  50  87 SW3G29      N/A
MAALAEA BAY*   NOT AVBL
HALEAKALA*     NOT AVBL
KAUPO GAP*       N/A     79  72  78 S5G12       N/A
KULA 1*          N/A     62  61  95 NW3         N/A
$$

HIZ023>026-040000-
BIG ISLAND OF HAWAII COAST AND LOWER SLOPES-

CITY           SKY/WX    TMP DP  RH WIND       PRES   REMARKS
KAILUA KONA    CLOUDY    88  75  65 W8        29.86F HX  97
HILO           PTSUNNY   88  75  65 E15       29.88F HX  97
HONOKAA*       NOT AVBL
KAWAIHAE MWT*    N/A     90 N/A N/A W7          N/A
KAWAIHAE*        N/A     84 N/A N/A SW5         N/A
SOUTH POINT*     N/A     79 N/A N/A E16G23      N/A
UPOLU AIRPORT*   N/A    N/A N/A N/A E15G22      N/A
KAMUELA*       NOT AVBL
HAKALAU*         N/A     69  60  74 S6G16       N/A
KALOKO-HONOKO*   N/A     90  75  62 SW8       29.85F HX 100
PALI 2*          N/A     72  72 100 SE8G18      N/A
KEALAKOMO*       N/A     88  73  62 E18G25      N/A  HX  96
KAUPULEHU*       N/A     84  73  70 W8G17       N/A  HX  91
KAPAPALA*        N/A     81  75  81 E6G13       N/A
LOWER KAHUKU*    N/A     75 N/A N/A E3G13       N/A
PUHE CS*         N/A     88  73  62 SW3         N/A  HX  96
PUHO CS*         N/A     88  74  62 SW3         N/A  HX  96
PTA KEAMUKU*     N/A     73  66  78 CALM        N/A
WAIKOLOA*        N/A     84  73  70 W6G14       N/A  HX  91
$$

HIZ027>028-040000-
BIG ISLAND OF HAWAII INTERIOR AND SUMMMITS-

CITY           SKY/WX    TMP DP  RH WIND       PRES   REMARKS
BRADSHAW FIELD CLOUDY    68  63  82 W10       30.26F
MK VISITOR CEN   N/A     55  50  82 S6          N/A
MAUNA KEA*       N/A     46  37  71 NW13G24     N/A
MAUNA LOA*       N/A     48  45  87 MISG        N/A
MAUNA LOA 1*   NOT AVBL
PTA KIPUKA*      N/A     70  63  78 NW7G15      N/A
PTA RANGE 17*    N/A     54  46  76 NW12G17     N/A
PTA WEST*      NOT AVBL
NENE CABIN*      N/A     66  52  59 E7G15       N/A
AHUMOA*          N/A     62  59  91 NW7         N/A
PTA PORTABLE*  NOT AVBL
PUU MALI*        N/A    N/A N/A N/A W6          N/A
$$

HIC003-040000-
NORTHWEST ISLANDS-

CITY           SKY/WX    TMP DP  RH WIND       PRES   REMARKS
MIDWAY ISLAND  MOSUNNY   84  77  79 SE9       29.92F HAZE    HX  94
MIDWAY NOS*    NOT AVBL
FRENCH FRIGATE NOT AVBL
$$

PHZ110>124-180-040000-
BUOY REPORTS

STATION/POSITION TIME  TEMP    WIND        PRES    WAVE   SWELL
                       AIR SEA DIR/SP/G            HT/PER HT/DIR
                 (UTC) (F)     (DEG/KT/KT) (MB)    (FT/S) (FT/D)
BUOY 51001       2256   81 83  230/  8/ 12 1010.8
BUOY 51101       2300   81 83  230/  8/ 12 1010.4F   9/14   8/110
BUOY 51100       NOT AVBL
BUOY 51002       2300   83 85  130/  8/ 10 1011.4F   8/15   8/ 80
BUOY 51003       2300   82 85  140/ 10/ 14 1010.9F   7/14   7/120
BUOY 51004       2216   82 83   30/ 12/ 14 1010.8F   9/11   8/ 80
BARBERS PT BUOY  NOT AVBL
WAIMEA BAY BUOY  2300      83                N/A     5/11   3/340
KAILUA BAY BUOY  2300      83                N/A     8/15   5/100
LANAI BUOY       NOT AVBL
BARBERS PT 2     2300      83                N/A     5/10   3/180
PAUWELA MAUI     2300      82                N/A     9/13   7/ 90
HILO             NOT AVBL
KANEOHE BAY BUOY 2300      83                N/A     6/11   3/350
HANALEI KAUAI    2300      84                N/A     8/11   7/ 60
KAHULUI HARBOR   2300   81 83  290/  6/ 16 1012.1R
HONOLULU HARBOR  2300   80 83  290/  2/  3 1011.7F
KILO NALU        NOT AVBL
HILO HARBOR      2300   86 82   90/  7/ 14 1011.6F
MOKUOLOE         2300      86              1011.9S
NAWILIWILI       2300   81 83  120/ 12/ 13 1011.4F
WHOTS BUOY       NOT AVBL
BUOY 51028       NOT AVBL
$$

......................KEY........................................
  SKY/WX - SKY CONDITIONS/PRESENT WEATHER
  TMP    - TEMPERATURE IN FAHRENHEIT
  DWPT   - DEWPOINT IN FAHRENHEIT
  RH     - RELATIVE HUMIDITY IN PERCENT
  WIND   - DIRECTION AND SPEED /MPH FOR ISLANDS...KTS FOR BUOYS/
  PRES   - MEAN SEA LEVEL PRESSURE IN INCHES OF HG
  VSB    - VISIBILITY IN MILES
  HX     - HEAT INDEX
  WCI    - WIND CHILL INDEX
  VRB    - VARIABLE WIND DIRECTION
  N/A    - NOT AVAILABLE



USA.gov is the U.S. government's official web portal to all federal, state and local government web resources and services.